This is the latest recevied weather packets stored in our database for station/object N9WHM. If no packets are shown the sender has not sent any weather packets the latest 10 day(s).
| Time | Temp. | Humidity | Pressure | Rain* | Wind** | Luminosity | Snow |
|---|---|---|---|---|---|---|---|
| 1777665581 | 12.78° C | 36% | 1019.2 hPa | 0 mm | - | 662 W/m² | - |
| 1777665279 | 12.22° C | 35% | 1019.1 hPa | 0 mm | - | 749 W/m² | - |
| 1777664974 | 12.78° C | 35% | 1019.1 hPa | 0 mm | - | 803 W/m² | - |
| 1777664670 | 12.22° C | 35% | 1019.3 hPa | 0 mm | - | 806 W/m² | - |
| 1777664366 | 11.67° C | 36% | 1019.1 hPa | 0 mm | - | 248 W/m² | - |
| 1777664064 | 12.22° C | 36% | 1019.3 hPa | 0 mm | - | 545 W/m² | - |
| 1777663762 | 12.22° C | 35% | 1019.4 hPa | 0 mm | - | 239 W/m² | - |
| 1777663459 | 12.22° C | 39% | 1019.3 hPa | 0 mm | - | 861 W/m² | - |
| 1777663156 | 12.78° C | 36% | 1019.3 hPa | 0 mm | - | 437 W/m² | - |
| 1777662853 | 12.78° C | 35% | 1019.3 hPa | 0 mm | - | 823 W/m² | - |
| 1777662549 | 12.22° C | 39% | 1019 hPa | 0 mm | - | 843 W/m² | - |
| 1777662245 | 12.78° C | 34% | 1019.3 hPa | 0 mm | - | 814 W/m² | - |
| 1777661940 | 11.67° C | 39% | 1019.2 hPa | 0 mm | - | 822 W/m² | - |
| 1777661637 | 11.67° C | 37% | 1019.2 hPa | 0 mm | - | 831 W/m² | - |
| 1777661332 | 11.67° C | 40% | 1019.4 hPa | 0 mm | - | 800 W/m² | - |
| 1777661029 | 11.67° C | 37% | 1019.2 hPa | 0 mm | - | 791 W/m² | - |
| 1777660724 | 12.22° C | 40% | 1019.1 hPa | 0 mm | - | 839 W/m² | - |
| 1777660422 | 11.67° C | 37% | 1019.1 hPa | 0 mm | - | 826 W/m² | - |
| 1777660118 | 11.67° C | 39% | 1019.3 hPa | 0 mm | - | 800 W/m² | - |
| 1777659815 | 11.67° C | 39% | 1019.3 hPa | 0 mm | - | 795 W/m² | - |
| 1777659512 | 11.67° C | 38% | 1019.3 hPa | 0 mm | - | 828 W/m² | - |
| 1777659210 | 12.22° C | 39% | 1019.5 hPa | 0 mm | - | 825 W/m² | - |
| 1777658906 | 11.67° C | 40% | 1019.4 hPa | 0 mm | - | 861 W/m² | - |
| 1777658602 | 11.11° C | 40% | 1019.3 hPa | 0 mm | - | 790 W/m² | - |
| 1777658300 | 11.11° C | 40% | 1019.3 hPa | 0 mm | - | 782 W/m² | - |
* Rain latest hour (hover to see other rain measurements)
** Current wind speed in m/s (hover to see current wind gust speed)